Regional Weather Roundup
Issued by NWS

Home | Current Version | Previous Version | Text Only | Print | Product List | Glossary Off
Versions: 1 2 3 4 5 6 7 8 9 10 11 12 13 14 15 16 17 18 19 20 21 22 23 24 25 26 27 28 29 30 31 32 33 34 35 36 37 38 39 40 41 42 43 44 45 46 47 48 49 50

000
ASUS43 KOAX 240303
RWRNE

WEATHER ROUNDUP FOR NEBRASKA
NATIONAL WEATHER SERVICE OMAHA NE
1000 PM CDT WED MAY 23 2018

NOTES: SATELLITE DATA IS BEING USED TO AUGMENT CLOUD COVER ABOVE
       12000 FEET.
       "FAIR" INDICATES FEW OR NO CLOUDS BELOW 12,000 FEET WITH NO
       SIGNIFICANT WEATHER AND/OR OBSTRUCTIONS TO VISIBILITY.


NEZ001>004-019>022-054>056-240400-
NEBRASKA PANHANDLE

CITY           SKY/WX    TMP DP  RH WIND       PRES   REMARKS
SCOTTSBLUFF    CLEAR     63  49  60 NE14      29.94S
ALLIANCE       PTCLDY    64  50  60 N13       29.96R
CHADRON        LGT RAIN  61  53  75 N17       29.94F
GORDON         CLOUDY    65  53  64 NW24G33   29.98R
KIMBALL        CLEAR     62  45  53 N10       30.00R
SIDNEY         PTCLDY    61  56  83 N8        29.93R
$$

NEZ057>060-069>072-079>082-240400-
SOUTHWEST NEBRASKA

CITY           SKY/WX    TMP DP  RH WIND       PRES   REMARKS
NORTH PLATTE   PTCLDY    73  63  70 SE13G21   29.90S
IMPERIAL       PTCLDY    75  58  55 SE21G30   29.89R
LEXINGTON      MOCLDY    75  62  65 S18G26    29.94R
MCCOOK         PTCLDY    73  61  65 SE13G23   29.90S
OGALLALA       CLOUDY    72  56  58 S14G26    29.90R
$$

NEZ005>010-023>029-035>040-094-240400-
NORTH CENTRAL NEBRASKA

CITY           SKY/WX    TMP DP  RH WIND       PRES   REMARKS
VALENTINE      CLOUDY    75  62  64 SE10      29.90R
AINSWORTH      PTCLDY    73  61  66 S15       29.92R
BROKEN BOW     MOCLDY    72  62  71 SE10      29.95R
O`NEILL        MOCLDY    73  59  62 SE9       29.95S
ORD            CLOUDY    72  64  76 SE7       29.93R
THEDFORD       MOCLDY    74  61  63 SE12      29.93R
$$

NEZ041-046>049-061>064-073>077-083>087-240400-
SOUTH CENTRAL NEBRASKA

CITY           SKY/WX    TMP DP  RH WIND       PRES   REMARKS
GRAND ISLAND   CLOUDY    77  60  55 SE10      29.98R
AURORA         CLOUDY    78  61  55 S15       29.98R
HASTINGS       CLOUDY    77  60  55 S10       29.98R
HEBRON         MOCLDY    80  62  54 S12       30.00R
HOLDREGE       CLOUDY    71  61  71 S12       29.97R
KEARNEY        MOCLDY    74  61  63 S15       29.97R
YORK           CLOUDY    79  63  57 S15G21    29.99R
$$

NEZ011>018-030>034-042>045-240400-
NORTHEAST NEBRASKA

CITY           SKY/WX    TMP DP  RH WIND       PRES   REMARKS
NORFOLK        CLOUDY    70  62  76 E3        29.97R
ALBION         CLOUDY    70  65  84 SE3       29.98R
BLAIR          CLEAR     81  61  50 S8        30.01R
COLUMBUS       CLOUDY    79  62  56 SE12      29.98R
FREMONT        CLOUDY    81  62  52 SE9       30.00R
TEKAMAH        CLOUDY    75  64  68 SE10      29.98R
WAYNE          MOCLDY    74  60  62 S3        29.97S
$$

NEZ050>053-065>068-078-088>093-240400-
SOUTHEAST NEBRASKA

CITY           SKY/WX    TMP DP  RH WIND       PRES   REMARKS
LINCOLN        CLOUDY    79  61  53 S12       30.00R
OMAHA EPPLEY   PTCLDY    81  61  50 SE10      30.00R
BEATRICE       CLOUDY    81  64  57 S10       30.00R
FALLS CITY     PTCLDY    78  62  57 SE9       30.02R
NEBRASKA CITY  CLEAR     78  62  57 S12       30.02R
PLATTSMOUTH    CLEAR     80  61  52 SE9       30.02R
$$

NEZ044-045-051>053-067-240400-
OMAHA AREA

CITY           SKY/WX    TMP DP  RH WIND       PRES   REMARKS
OMAHA EPPLEY   PTCLDY    81  61  50 SE10      30.00R
BLAIR          CLEAR     81  61  50 S8        30.01R
FREMONT        CLOUDY    81  62  52 SE9       30.00R
MILLARD        CLEAR     80  64  56 SE5       30.00R
OFFUTT AFB     CLEAR     76  62  61 SE6       30.00R
PLATTSMOUTH    CLEAR     80  61  52 SE9       30.02R
WAHOO          FAIR      78  59  52 S8        30.00R
$$




USA.gov is the U.S. government's official web portal to all federal, state and local government web resources and services.